owner,sensor,date,latitude,longitude,sea_surface_height_above_sea_level,qcFlag 
TCOON,ioos:station:TCOON:003:1,2016-12-01T00:18:00Z,26.8015,-97.4706,1.24,1111122 
TCOON,ioos:station:TCOON:003:1,2016-12-01T01:18:00Z,26.8015,-97.4706,1.256,1111122 
TCOON,ioos:station:TCOON:003:1,2016-12-01T02:18:00Z,26.8015,-97.4706,1.277,1111122 
TCOON,ioos:station:TCOON:003:1,2016-12-01T03:18:00Z,26.8015,-97.4706,1.285,1111122 
TCOON,ioos:station:TCOON:003:1,2016-12-01T04:18:00Z,26.8015,-97.4706,1.283,1111122 
TCOON,ioos:station:TCOON:003:1,2016-12-01T05:18:00Z,26.8015,-97.4706,1.282,1111122 
TCOON,ioos:station:TCOON:003:1,2016-12-01T06:18:00Z,26.8015,-97.4706,1.289,1111122 
TCOON,ioos:station:TCOON:003:1,2016-12-01T07:18:00Z,26.8015,-97.4706,1.293,1111122 
TCOON,ioos:station:TCOON:003:1,2016-12-01T08:18:00Z,26.8015,-97.4706,1.297,1111122 
TCOON,ioos:station:TCOON:003:1,2016-12-01T09:18:00Z,26.8015,-97.4706,1.302,1111122 
TCOON,ioos:station:TCOON:003:1,2016-12-01T10:18:00Z,26.8015,-97.4706,1.31,1111122 
TCOON,ioos:station:TCOON:003:1,2016-12-01T11:18:00Z,26.8015,-97.4706,1.317,1111122 
TCOON,ioos:station:TCOON:003:1,2016-12-01T12:18:00Z,26.8015,-97.4706,1.318,1111122 
TCOON,ioos:station:TCOON:003:1,2016-12-01T13:18:00Z,26.8015,-97.4706,1.312,1111122 
TCOON,ioos:station:TCOON:003:1,2016-12-01T14:18:00Z,26.8015,-97.4706,1.306,1111122 
TCOON,ioos:station:TCOON:003:1,2016-12-01T15:18:00Z,26.8015,-97.4706,1.316,1111122 
TCOON,ioos:station:TCOON:003:1,2016-12-01T16:18:00Z,26.8015,-97.4706,1.316,1111122 
TCOON,ioos:station:TCOON:003:1,2016-12-01T17:36:00Z,26.8015,-97.4706,1.322,1111122 
TCOON,ioos:station:TCOON:003:1,2016-12-01T18:18:00Z,26.8015,-97.4706,1.317,1111122 
TCOON,ioos:station:TCOON:003:1,2016-12-01T19:18:00Z,26.8015,-97.4706,1.313,1111122 
TCOON,ioos:station:TCOON:003:1,2016-12-01T20:18:00Z,26.8015,-97.4706,1.312,1111122 
TCOON,ioos:station:TCOON:003:1,2016-12-01T21:18:00Z,26.8015,-97.4706,1.315,1111122 
TCOON,ioos:station:TCOON:003:1,2016-12-01T22:18:00Z,26.8015,-97.4706,1.316,1111122 
TCOON,ioos:station:TCOON:003:1,2016-12-01T23:18:00Z,26.8015,-97.4706,1.317,1111122 
TCOON,ioos:station:TCOON:003:1,2016-12-02T00:18:00Z,26.8015,-97.4706,1.324,1111122 
TCOON,ioos:station:TCOON:003:1,2016-12-02T01:18:00Z,26.8015,-97.4706,1.331,1111122 
TCOON,ioos:station:TCOON:003:1,2016-12-02T02:18:00Z,26.8015,-97.4706,1.347,1111122 
TCOON,ioos:station:TCOON:003:1,2016-12-02T03:18:00Z,26.8015,-97.4706,1.356,1111122 
TCOON,ioos:station:TCOON:003:1,2016-12-02T04:18:00Z,26.8015,-97.4706,1.363,1111122 
TCOON,ioos:station:TCOON:003:1,2016-12-02T05:18:00Z,26.8015,-97.4706,1.354,1111122 
TCOON,ioos:station:TCOON:003:1,2016-12-02T06:18:00Z,26.8015,-97.4706,1.356,1111122 
TCOON,ioos:station:TCOON:003:1,2016-12-02T07:18:00Z,26.8015,-97.4706,1.357,1111122 
TCOON,ioos:station:TCOON:003:1,2016-12-02T08:18:00Z,26.8015,-97.4706,1.358,1111122 
TCOON,ioos:station:TCOON:003:1,2016-12-02T09:18:00Z,26.8015,-97.4706,1.356,1111122 
TCOON,ioos:station:TCOON:003:1,2016-12-02T10:18:00Z,26.8015,-97.4706,1.353,1111122 
TCOON,ioos:station:TCOON:003:1,2016-12-02T11:18:00Z,26.8015,-97.4706,1.347,1111122 
TCOON,ioos:station:TCOON:003:1,2016-12-02T12:18:00Z,26.8015,-97.4706,1.342,1111122 
TCOON,ioos:station:TCOON:003:1,2016-12-02T13:18:00Z,26.8015,-97.4706,1.34,1111122 
TCOON,ioos:station:TCOON:003:1,2016-12-02T14:18:00Z,26.8015,-97.4706,1.343,1111122 
TCOON,ioos:station:TCOON:003:1,2016-12-02T15:18:00Z,26.8015,-97.4706,1.335,1111122 
TCOON,ioos:station:TCOON:003:1,2016-12-02T16:18:00Z,26.8015,-97.4706,1.343,1111122 
TCOON,ioos:station:TCOON:003:1,2016-12-02T17:18:00Z,26.8015,-97.4706,1.358,1111122 
TCOON,ioos:station:TCOON:003:1,2016-12-02T18:18:00Z,26.8015,-97.4706,1.366,1111122 
TCOON,ioos:station:TCOON:003:1,2016-12-02T19:18:00Z,26.8015,-97.4706,1.357,1111122 
TCOON,ioos:station:TCOON:003:1,2016-12-02T20:18:00Z,26.8015,-97.4706,1.35,1111122 
TCOON,ioos:station:TCOON:003:1,2016-12-02T21:18:00Z,26.8015,-97.4706,1.342,1111122 
TCOON,ioos:station:TCOON:003:1,2016-12-02T22:18:00Z,26.8015,-97.4706,1.328,1111122 
TCOON,ioos:station:TCOON:003:1,2016-12-02T23:18:00Z,26.8015,-97.4706,1.343,1111122 
TCOON,ioos:station:TCOON:003:1,2016-12-03T00:18:00Z,26.8015,-97.4706,1.35,1111122 
TCOON,ioos:station:TCOON:003:1,2016-12-03T01:18:00Z,26.8015,-97.4706,1.367,1111122 
TCOON,ioos:station:TCOON:003:1,2016-12-03T02:18:00Z,26.8015,-97.4706,1.378,1111122 
TCOON,ioos:station:TCOON:003:1,2016-12-03T03:18:00Z,26.8015,-97.4706,1.361,1111122 
TCOON,ioos:station:TCOON:003:1,2016-12-03T04:18:00Z,26.8015,-97.4706,1.346,1111122 
TCOON,ioos:station:TCOON:003:1,2016-12-03T05:18:00Z,26.8015,-97.4706,1.352,1111122 
TCOON,ioos:station:TCOON:003:1,2016-12-03T06:18:00Z,26.8015,-97.4706,1.366,1111122 
TCOON,ioos:station:TCOON:003:1,2016-12-03T07:18:00Z,26.8015,-97.4706,1.381,1111122 
TCOON,ioos:station:TCOON:003:1,2016-12-03T08:18:00Z,26.8015,-97.4706,1.406,1111122 
TCOON,ioos:station:TCOON:003:1,2016-12-03T09:18:00Z,26.8015,-97.4706,1.404,1111122 
TCOON,ioos:station:TCOON:003:1,2016-12-03T10:18:00Z,26.8015,-97.4706,1.413,1111122 
TCOON,ioos:station:TCOON:003:1,2016-12-03T11:18:00Z,26.8015,-97.4706,1.492,1111122 
TCOON,ioos:station:TCOON:003:1,2016-12-03T12:18:00Z,26.8015,-97.4706,1.496,1111122 
TCOON,ioos:station:TCOON:003:1,2016-12-03T13:18:00Z,26.8015,-97.4706,1.448,1111122 
TCOON,ioos:station:TCOON:003:1,2016-12-03T14:18:00Z,26.8015,-97.4706,1.397,1111122 
TCOON,ioos:station:TCOON:003:1,2016-12-03T15:18:00Z,26.8015,-97.4706,1.377,1111122 
TCOON,ioos:station:TCOON:003:1,2016-12-03T16:18:00Z,26.8015,-97.4706,1.373,1111122 
TCOON,ioos:station:TCOON:003:1,2016-12-03T17:18:00Z,26.8015,-97.4706,1.374,1111122 
TCOON,ioos:station:TCOON:003:1,2016-12-03T18:18:00Z,26.8015,-97.4706,1.382,1111122 
TCOON,ioos:station:TCOON:003:1,2016-12-03T19:18:00Z,26.8015,-97.4706,1.408,1111122 
TCOON,ioos:station:TCOON:003:1,2016-12-03T20:18:00Z,26.8015,-97.4706,1.42,1111122 
TCOON,ioos:station:TCOON:003:1,2016-12-03T21:18:00Z,26.8015,-97.4706,1.428,1111122 
TCOON,ioos:station:TCOON:003:1,2016-12-03T22:18:00Z,26.8015,-97.4706,1.426,1111122 
TCOON,ioos:station:TCOON:003:1,2016-12-03T23:18:00Z,26.8015,-97.4706,1.399,1111122 
TCOON,ioos:station:TCOON:003:1,2016-12-04T00:18:00Z,26.8015,-97.4706,1.353,1111122 
TCOON,ioos:station:TCOON:003:1,2016-12-04T01:18:00Z,26.8015,-97.4706,1.302,1111122 
TCOON,ioos:station:TCOON:003:1,2016-12-04T02:18:00Z,26.8015,-97.4706,1.261,1111122 
TCOON,ioos:station:TCOON:003:1,2016-12-04T03:18:00Z,26.8015,-97.4706,1.26,1111122 
TCOON,ioos:station:TCOON:003:1,2016-12-04T04:18:00Z,26.8015,-97.4706,1.299,1111122 
TCOON,ioos:station:TCOON:003:1,2016-12-04T05:18:00Z,26.8015,-97.4706,1.334,1111122 
TCOON,ioos:station:TCOON:003:1,2016-12-04T06:18:00Z,26.8015,-97.4706,1.346,1111122 
TCOON,ioos:station:TCOON:003:1,2016-12-04T07:18:00Z,26.8015,-97.4706,1.365,1111122 
TCOON,ioos:station:TCOON:003:1,2016-12-04T08:18:00Z,26.8015,-97.4706,1.384,1111122 
TCOON,ioos:station:TCOON:003:1,2016-12-04T09:18:00Z,26.8015,-97.4706,1.397,1111122 
TCOON,ioos:station:TCOON:003:1,2016-12-04T10:18:00Z,26.8015,-97.4706,1.369,1111122 
TCOON,ioos:station:TCOON:003:1,2016-12-04T11:18:00Z,26.8015,-97.4706,1.318,1111122 
TCOON,ioos:station:TCOON:003:1,2016-12-04T12:18:00Z,26.8015,-97.4706,1.28,1111122 
TCOON,ioos:station:TCOON:003:1,2016-12-04T13:18:00Z,26.8015,-97.4706,1.265,1111122 
TCOON,ioos:station:TCOON:003:1,2016-12-04T14:18:00Z,26.8015,-97.4706,1.296,1111122 
TCOON,ioos:station:TCOON:003:1,2016-12-04T15:18:00Z,26.8015,-97.4706,1.301,1111122 
TCOON,ioos:station:TCOON:003:1,2016-12-04T16:18:00Z,26.8015,-97.4706,1.269,1111122 
TCOON,ioos:station:TCOON:003:1,2016-12-04T17:18:00Z,26.8015,-97.4706,1.242,1111122 
TCOON,ioos:station:TCOON:003:1,2016-12-04T18:18:00Z,26.8015,-97.4706,1.234,1111122 
TCOON,ioos:station:TCOON:003:1,2016-12-04T19:18:00Z,26.8015,-97.4706,1.231,1111122 
TCOON,ioos:station:TCOON:003:1,2016-12-04T20:18:00Z,26.8015,-97.4706,1.238,1111122 
TCOON,ioos:station:TCOON:003:1,2016-12-04T21:18:00Z,26.8015,-97.4706,1.224,1111122 
TCOON,ioos:station:TCOON:003:1,2016-12-04T22:18:00Z,26.8015,-97.4706,1.21,1111122 
TCOON,ioos:station:TCOON:003:1,2016-12-04T23:18:00Z,26.8015,-97.4706,1.217,1111122 
TCOON,ioos:station:TCOON:003:1,2016-12-05T00:18:00Z,26.8015,-97.4706,1.226,1111122 
TCOON,ioos:station:TCOON:003:1,2016-12-05T01:18:00Z,26.8015,-97.4706,1.218,1111122 
TCOON,ioos:station:TCOON:003:1,2016-12-05T02:18:00Z,26.8015,-97.4706,1.212,1111122 
TCOON,ioos:station:TCOON:003:1,2016-12-05T03:18:00Z,26.8015,-97.4706,1.229,1111122 
TCOON,ioos:station:TCOON:003:1,2016-12-05T04:18:00Z,26.8015,-97.4706,1.225,1111122 
TCOON,ioos:station:TCOON:003:1,2016-12-05T05:18:00Z,26.8015,-97.4706,1.206,1111122 
TCOON,ioos:station:TCOON:003:1,2016-12-05T06:18:00Z,26.8015,-97.4706,1.199,1111122 
TCOON,ioos:station:TCOON:003:1,2016-12-05T07:18:00Z,26.8015,-97.4706,1.196,1111122 
TCOON,ioos:station:TCOON:003:1,2016-12-05T08:18:00Z,26.8015,-97.4706,1.192,1111122 
TCOON,ioos:station:TCOON:003:1,2016-12-05T09:18:00Z,26.8015,-97.4706,1.189,1111122 
TCOON,ioos:station:TCOON:003:1,2016-12-05T10:18:00Z,26.8015,-97.4706,1.187,1111122 
TCOON,ioos:station:TCOON:003:1,2016-12-05T11:18:00Z,26.8015,-97.4706,1.185,1111122 
TCOON,ioos:station:TCOON:003:1,2016-12-05T12:18:00Z,26.8015,-97.4706,1.191,1111122 
TCOON,ioos:station:TCOON:003:1,2016-12-05T13:18:00Z,26.8015,-97.4706,1.195,1111122 
TCOON,ioos:station:TCOON:003:1,2016-12-05T14:18:00Z,26.8015,-97.4706,1.202,1111122 
TCOON,ioos:station:TCOON:003:1,2016-12-05T15:18:00Z,26.8015,-97.4706,1.208,1111122 
TCOON,ioos:station:TCOON:003:1,2016-12-05T21:42:00Z,26.8015,-97.4706,1.246,1111122 
TCOON,ioos:station:TCOON:003:1,2016-12-05T22:18:00Z,26.8015,-97.4706,1.255,1111122 
TCOON,ioos:station:TCOON:003:1,2016-12-05T23:18:00Z,26.8015,-97.4706,1.272,1111122 
TCOON,ioos:station:TCOON:003:1,2016-12-06T00:18:00Z,26.8015,-97.4706,1.283,1111122 
TCOON,ioos:station:TCOON:003:1,2016-12-06T01:18:00Z,26.8015,-97.4706,1.297,1111122 
TCOON,ioos:station:TCOON:003:1,2016-12-06T02:18:00Z,26.8015,-97.4706,1.314,1111122 
TCOON,ioos:station:TCOON:003:1,2016-12-06T03:18:00Z,26.8015,-97.4706,1.334,1111122 
TCOON,ioos:station:TCOON:003:1,2016-12-06T04:18:00Z,26.8015,-97.4706,1.346,1111122 
TCOON,ioos:station:TCOON:003:1,2016-12-06T05:18:00Z,26.8015,-97.4706,1.354,1111122 
TCOON,ioos:station:TCOON:003:1,2016-12-06T06:18:00Z,26.8015,-97.4706,1.355,1111122 
TCOON,ioos:station:TCOON:003:1,2016-12-06T07:18:00Z,26.8015,-97.4706,1.357,1111122 
TCOON,ioos:station:TCOON:003:1,2016-12-06T08:18:00Z,26.8015,-97.4706,1.362,1111122 
TCOON,ioos:station:TCOON:003:1,2016-12-06T09:18:00Z,26.8015,-97.4706,1.369,1111122 
TCOON,ioos:station:TCOON:003:1,2016-12-06T10:18:00Z,26.8015,-97.4706,1.388,1111122 
TCOON,ioos:station:TCOON:003:1,2016-12-06T11:18:00Z,26.8015,-97.4706,1.393,1111122 
TCOON,ioos:station:TCOON:003:1,2016-12-06T12:18:00Z,26.8015,-97.4706,1.399,1111122 
TCOON,ioos:station:TCOON:003:1,2016-12-06T13:18:00Z,26.8015,-97.4706,1.398,1111122 
TCOON,ioos:station:TCOON:003:1,2016-12-06T14:18:00Z,26.8015,-97.4706,1.392,1111122 
TCOON,ioos:station:TCOON:003:1,2016-12-06T15:18:00Z,26.8015,-97.4706,1.387,1111122 
TCOON,ioos:station:TCOON:003:1,2016-12-06T16:18:00Z,26.8015,-97.4706,1.389,1111122 
TCOON,ioos:station:TCOON:003:1,2016-12-06T17:18:00Z,26.8015,-97.4706,1.393,1111122 
TCOON,ioos:station:TCOON:003:1,2016-12-06T18:18:00Z,26.8015,-97.4706,1.401,1111122 
TCOON,ioos:station:TCOON:003:1,2016-12-06T19:18:00Z,26.8015,-97.4706,1.388,1111122 
TCOON,ioos:station:TCOON:003:1,2016-12-06T20:18:00Z,26.8015,-97.4706,1.371,1111122 
TCOON,ioos:station:TCOON:003:1,2016-12-06T21:18:00Z,26.8015,-97.4706,1.374,1111122 
TCOON,ioos:station:TCOON:003:1,2016-12-06T22:18:00Z,26.8015,-97.4706,1.369,1111122 
TCOON,ioos:station:TCOON:003:1,2016-12-06T23:18:00Z,26.8015,-97.4706,1.369,1111122 
TCOON,ioos:station:TCOON:003:1,2016-12-07T00:18:00Z,26.8015,-97.4706,1.368,1111122 
TCOON,ioos:station:TCOON:003:1,2016-12-07T01:18:00Z,26.8015,-97.4706,1.364,1111122 
TCOON,ioos:station:TCOON:003:1,2016-12-07T02:18:00Z,26.8015,-97.4706,1.359,1111122 
TCOON,ioos:station:TCOON:003:1,2016-12-07T03:18:00Z,26.8015,-97.4706,1.353,1111122 
TCOON,ioos:station:TCOON:003:1,2016-12-07T04:18:00Z,26.8015,-97.4706,1.353,1111122 
TCOON,ioos:station:TCOON:003:1,2016-12-07T05:18:00Z,26.8015,-97.4706,1.341,1111122 
TCOON,ioos:station:TCOON:003:1,2016-12-07T06:18:00Z,26.8015,-97.4706,1.31,1111122 
TCOON,ioos:station:TCOON:003:1,2016-12-07T07:18:00Z,26.8015,-97.4706,1.288,1111122 
TCOON,ioos:station:TCOON:003:1,2016-12-07T08:18:00Z,26.8015,-97.4706,1.274,1111122 
TCOON,ioos:station:TCOON:003:1,2016-12-07T09:18:00Z,26.8015,-97.4706,1.282,1111122 
TCOON,ioos:station:TCOON:003:1,2016-12-07T10:18:00Z,26.8015,-97.4706,1.285,1111122 
TCOON,ioos:station:TCOON:003:1,2016-12-07T11:18:00Z,26.8015,-97.4706,1.291,1111122 
TCOON,ioos:station:TCOON:003:1,2016-12-07T12:18:00Z,26.8015,-97.4706,1.294,1111122 
TCOON,ioos:station:TCOON:003:1,2016-12-07T13:18:00Z,26.8015,-97.4706,1.293,1111122 
TCOON,ioos:station:TCOON:003:1,2016-12-07T14:18:00Z,26.8015,-97.4706,1.292,1111122 
TCOON,ioos:station:TCOON:003:1,2016-12-07T15:18:00Z,26.8015,-97.4706,1.285,1111122 
TCOON,ioos:station:TCOON:003:1,2016-12-07T16:18:00Z,26.8015,-97.4706,1.278,1111122 
TCOON,ioos:station:TCOON:003:1,2016-12-07T17:18:00Z,26.8015,-97.4706,1.27,1111122 
TCOON,ioos:station:TCOON:003:1,2016-12-07T18:18:00Z,26.8015,-97.4706,1.264,1111122 
TCOON,ioos:station:TCOON:003:1,2016-12-07T19:18:00Z,26.8015,-97.4706,1.254,1111122 
TCOON,ioos:station:TCOON:003:1,2016-12-07T20:18:00Z,26.8015,-97.4706,1.252,1111122 
TCOON,ioos:station:TCOON:003:1,2016-12-07T21:18:00Z,26.8015,-97.4706,1.261,1111122 
TCOON,ioos:station:TCOON:003:1,2016-12-07T22:18:00Z,26.8015,-97.4706,1.265,1111122 
TCOON,ioos:station:TCOON:003:1,2016-12-07T23:18:00Z,26.8015,-97.4706,1.274,1111122 
TCOON,ioos:station:TCOON:003:1,2016-12-08T00:18:00Z,26.8015,-97.4706,1.265,1111122 
TCOON,ioos:station:TCOON:003:1,2016-12-08T01:18:00Z,26.8015,-97.4706,1.248,1111122 
TCOON,ioos:station:TCOON:003:1,2016-12-08T02:18:00Z,26.8015,-97.4706,1.228,1111122 
TCOON,ioos:station:TCOON:003:1,2016-12-08T03:54:00Z,26.8015,-97.4706,1.208,1111122 
TCOON,ioos:station:TCOON:003:1,2016-12-08T04:30:00Z,26.8015,-97.4706,1.208,1111122 
TCOON,ioos:station:TCOON:003:1,2016-12-08T05:18:00Z,26.8015,-97.4706,1.214,1111122 
TCOON,ioos:station:TCOON:003:1,2016-12-08T06:24:00Z,26.8015,-97.4706,1.212,1111122 
TCOON,ioos:station:TCOON:003:1,2016-12-08T07:18:00Z,26.8015,-97.4706,1.198,1111122 
TCOON,ioos:station:TCOON:003:1,2016-12-08T08:18:00Z,26.8015,-97.4706,1.178,1111122 
TCOON,ioos:station:TCOON:003:1,2016-12-08T09:18:00Z,26.8015,-97.4706,1.151,1111122 
TCOON,ioos:station:TCOON:003:1,2016-12-08T10:18:00Z,26.8015,-97.4706,1.109,1111122 
TCOON,ioos:station:TCOON:003:1,2016-12-08T11:18:00Z,26.8015,-97.4706,1.082,1111122 
TCOON,ioos:station:TCOON:003:1,2016-12-08T12:18:00Z,26.8015,-97.4706,1.062,1111122 
TCOON,ioos:station:TCOON:003:1,2016-12-08T13:18:00Z,26.8015,-97.4706,1.045,1111122 
TCOON,ioos:station:TCOON:003:1,2016-12-08T14:18:00Z,26.8015,-97.4706,1.034,1111122 
TCOON,ioos:station:TCOON:003:1,2016-12-08T15:18:00Z,26.8015,-97.4706,1.04,1111122 
TCOON,ioos:station:TCOON:003:1,2016-12-08T16:18:00Z,26.8015,-97.4706,1.045,1111122 
TCOON,ioos:station:TCOON:003:1,2016-12-08T17:18:00Z,26.8015,-97.4706,1.024,1111122 
TCOON,ioos:station:TCOON:003:1,2016-12-08T18:18:00Z,26.8015,-97.4706,0.995,1111122 
TCOON,ioos:station:TCOON:003:1,2016-12-08T19:18:00Z,26.8015,-97.4706,0.974,1111122 
TCOON,ioos:station:TCOON:003:1,2016-12-08T20:18:00Z,26.8015,-97.4706,0.967,1111122 
TCOON,ioos:station:TCOON:003:1,2016-12-08T21:18:00Z,26.8015,-97.4706,0.949,1111122 
TCOON,ioos:station:TCOON:003:1,2016-12-08T22:18:00Z,26.8015,-97.4706,0.912,1111122 
TCOON,ioos:station:TCOON:003:1,2016-12-08T23:18:00Z,26.8015,-97.4706,0.88,1111122 
TCOON,ioos:station:TCOON:003:1,2016-12-09T00:18:00Z,26.8015,-97.4706,0.869,1111122 
TCOON,ioos:station:TCOON:003:1,2016-12-09T01:18:00Z,26.8015,-97.4706,0.863,1111122 
TCOON,ioos:station:TCOON:003:1,2016-12-09T02:18:00Z,26.8015,-97.4706,0.866,1111122 
TCOON,ioos:station:TCOON:003:1,2016-12-09T03:18:00Z,26.8015,-97.4706,0.867,1111122 
TCOON,ioos:station:TCOON:003:1,2016-12-09T04:24:00Z,26.8015,-97.4706,0.864,1111122 
TCOON,ioos:station:TCOON:003:1,2016-12-09T05:18:00Z,26.8015,-97.4706,0.869,1111122 
TCOON,ioos:station:TCOON:003:1,2016-12-09T06:18:00Z,26.8015,-97.4706,0.872,1111122 
TCOON,ioos:station:TCOON:003:1,2016-12-09T07:18:00Z,26.8015,-97.4706,0.879,1111122 
TCOON,ioos:station:TCOON:003:1,2016-12-09T09:18:00Z,26.8015,-97.4706,0.877,1111122 
TCOON,ioos:station:TCOON:003:1,2016-12-09T10:18:00Z,26.8015,-97.4706,0.88,1111122 
TCOON,ioos:station:TCOON:003:1,2016-12-09T11:18:00Z,26.8015,-97.4706,0.884,1111122 
TCOON,ioos:station:TCOON:003:1,2016-12-09T12:18:00Z,26.8015,-97.4706,0.885,1111122 
TCOON,ioos:station:TCOON:003:1,2016-12-09T13:18:00Z,26.8015,-97.4706,0.889,1111122 
TCOON,ioos:station:TCOON:003:1,2016-12-09T14:18:00Z,26.8015,-97.4706,0.886,1111122 
TCOON,ioos:station:TCOON:003:1,2016-12-09T15:18:00Z,26.8015,-97.4706,0.889,1111122 
TCOON,ioos:station:TCOON:003:1,2016-12-09T16:24:00Z,26.8015,-97.4706,0.903,1111122 
TCOON,ioos:station:TCOON:003:1,2016-12-09T17:18:00Z,26.8015,-97.4706,0.918,1111122 
TCOON,ioos:station:TCOON:003:1,2016-12-09T18:18:00Z,26.8015,-97.4706,0.936,1111122 
TCOON,ioos:station:TCOON:003:1,2016-12-09T19:18:00Z,26.8015,-97.4706,0.95,1111122 
TCOON,ioos:station:TCOON:003:1,2016-12-09T20:18:00Z,26.8015,-97.4706,0.962,1111122 
TCOON,ioos:station:TCOON:003:1,2016-12-09T21:18:00Z,26.8015,-97.4706,0.971,1111122 
TCOON,ioos:station:TCOON:003:1,2016-12-09T22:18:00Z,26.8015,-97.4706,0.976,1111122 
TCOON,ioos:station:TCOON:003:1,2016-12-09T23:18:00Z,26.8015,-97.4706,0.98,1111122 
TCOON,ioos:station:TCOON:003:1,2016-12-10T00:18:00Z,26.8015,-97.4706,0.989,1111122 
TCOON,ioos:station:TCOON:003:1,2016-12-10T01:18:00Z,26.8015,-97.4706,1.003,1111122 
TCOON,ioos:station:TCOON:003:1,2016-12-10T02:18:00Z,26.8015,-97.4706,1.017,1111122 
TCOON,ioos:station:TCOON:003:1,2016-12-10T03:18:00Z,26.8015,-97.4706,1.032,1111122 
TCOON,ioos:station:TCOON:003:1,2016-12-10T04:24:00Z,26.8015,-97.4706,1.043,1111122 
TCOON,ioos:station:TCOON:003:1,2016-12-10T05:18:00Z,26.8015,-97.4706,1.043,1111122 
TCOON,ioos:station:TCOON:003:1,2016-12-10T06:18:00Z,26.8015,-97.4706,1.039,1111122 
TCOON,ioos:station:TCOON:003:1,2016-12-10T07:18:00Z,26.8015,-97.4706,1.042,1111122 
TCOON,ioos:station:TCOON:003:1,2016-12-10T08:18:00Z,26.8015,-97.4706,1.051,1111122 
TCOON,ioos:station:TCOON:003:1,2016-12-10T09:18:00Z,26.8015,-97.4706,1.059,1111122 
TCOON,ioos:station:TCOON:003:1,2016-12-10T10:18:00Z,26.8015,-97.4706,1.06,1111122 
TCOON,ioos:station:TCOON:003:1,2016-12-10T11:18:00Z,26.8015,-97.4706,1.072,1111122 
TCOON,ioos:station:TCOON:003:1,2016-12-10T12:18:00Z,26.8015,-97.4706,1.075,1111122 
TCOON,ioos:station:TCOON:003:1,2016-12-10T13:18:00Z,26.8015,-97.4706,1.077,1111122 
TCOON,ioos:station:TCOON:003:1,2016-12-10T14:18:00Z,26.8015,-97.4706,1.078,1111122 
TCOON,ioos:station:TCOON:003:1,2016-12-10T15:18:00Z,26.8015,-97.4706,1.078,1111122 
TCOON,ioos:station:TCOON:003:1,2016-12-10T16:18:00Z,26.8015,-97.4706,1.089,1111122 
TCOON,ioos:station:TCOON:003:1,2016-12-10T17:18:00Z,26.8015,-97.4706,1.104,1111122 
TCOON,ioos:station:TCOON:003:1,2016-12-10T18:18:00Z,26.8015,-97.4706,1.118,1111122 
TCOON,ioos:station:TCOON:003:1,2016-12-10T19:18:00Z,26.8015,-97.4706,1.132,1111122 
TCOON,ioos:station:TCOON:003:1,2016-12-10T20:18:00Z,26.8015,-97.4706,1.137,1111122 
TCOON,ioos:station:TCOON:003:1,2016-12-10T21:18:00Z,26.8015,-97.4706,1.145,1111122 
TCOON,ioos:station:TCOON:003:1,2016-12-10T22:18:00Z,26.8015,-97.4706,1.153,1111122 
TCOON,ioos:station:TCOON:003:1,2016-12-10T23:18:00Z,26.8015,-97.4706,1.154,1111122 
TCOON,ioos:station:TCOON:003:1,2016-12-11T00:18:00Z,26.8015,-97.4706,1.162,1111122 
TCOON,ioos:station:TCOON:003:1,2016-12-11T01:18:00Z,26.8015,-97.4706,1.18,1111122 
TCOON,ioos:station:TCOON:003:1,2016-12-11T02:18:00Z,26.8015,-97.4706,1.192,1111122 
TCOON,ioos:station:TCOON:003:1,2016-12-11T03:18:00Z,26.8015,-97.4706,1.198,1111122 
TCOON,ioos:station:TCOON:003:1,2016-12-11T04:18:00Z,26.8015,-97.4706,1.205,1111122 
TCOON,ioos:station:TCOON:003:1,2016-12-11T05:18:00Z,26.8015,-97.4706,1.211,1111122 
TCOON,ioos:station:TCOON:003:1,2016-12-11T06:18:00Z,26.8015,-97.4706,1.22,1111122 
TCOON,ioos:station:TCOON:003:1,2016-12-11T07:18:00Z,26.8015,-97.4706,1.23,1111122 
TCOON,ioos:station:TCOON:003:1,2016-12-11T08:18:00Z,26.8015,-97.4706,1.24,1111122 
TCOON,ioos:station:TCOON:003:1,2016-12-11T09:18:00Z,26.8015,-97.4706,1.246,1111122 
TCOON,ioos:station:TCOON:003:1,2016-12-11T10:18:00Z,26.8015,-97.4706,1.249,1111122 
TCOON,ioos:station:TCOON:003:1,2016-12-11T11:18:00Z,26.8015,-97.4706,1.255,1111122 
TCOON,ioos:station:TCOON:003:1,2016-12-11T12:18:00Z,26.8015,-97.4706,1.254,1111122 
TCOON,ioos:station:TCOON:003:1,2016-12-11T13:18:00Z,26.8015,-97.4706,1.254,1111122 
TCOON,ioos:station:TCOON:003:1,2016-12-11T14:18:00Z,26.8015,-97.4706,1.254,1111122 
TCOON,ioos:station:TCOON:003:1,2016-12-11T15:18:00Z,26.8015,-97.4706,1.257,1111122 
TCOON,ioos:station:TCOON:003:1,2016-12-11T16:18:00Z,26.8015,-97.4706,1.265,1111122 
TCOON,ioos:station:TCOON:003:1,2016-12-11T17:18:00Z,26.8015,-97.4706,1.281,1111122 
TCOON,ioos:station:TCOON:003:1,2016-12-11T18:18:00Z,26.8015,-97.4706,1.303,1111122 
TCOON,ioos:station:TCOON:003:1,2016-12-11T19:18:00Z,26.8015,-97.4706,1.314,1111122 
TCOON,ioos:station:TCOON:003:1,2016-12-11T20:18:00Z,26.8015,-97.4706,1.325,1111122 
TCOON,ioos:station:TCOON:003:1,2016-12-11T21:18:00Z,26.8015,-97.4706,1.36,1111122 
TCOON,ioos:station:TCOON:003:1,2016-12-11T22:18:00Z,26.8015,-97.4706,1.412,1111122 
TCOON,ioos:station:TCOON:003:1,2016-12-11T23:18:00Z,26.8015,-97.4706,1.419,1111122 
TCOON,ioos:station:TCOON:003:1,2016-12-12T00:18:00Z,26.8015,-97.4706,1.399,1111122 
TCOON,ioos:station:TCOON:003:1,2016-12-12T01:18:00Z,26.8015,-97.4706,1.359,1111122 
TCOON,ioos:station:TCOON:003:1,2016-12-12T02:18:00Z,26.8015,-97.4706,1.332,1111122 
TCOON,ioos:station:TCOON:003:1,2016-12-12T03:18:00Z,26.8015,-97.4706,1.325,1111122 
TCOON,ioos:station:TCOON:003:1,2016-12-12T04:18:00Z,26.8015,-97.4706,1.322,1111122 
TCOON,ioos:station:TCOON:003:1,2016-12-12T05:18:00Z,26.8015,-97.4706,1.325,1111122 
TCOON,ioos:station:TCOON:003:1,2016-12-12T06:18:00Z,26.8015,-97.4706,1.335,1111122 
TCOON,ioos:station:TCOON:003:1,2016-12-12T07:18:00Z,26.8015,-97.4706,1.346,1111122 
TCOON,ioos:station:TCOON:003:1,2016-12-12T08:18:00Z,26.8015,-97.4706,1.361,1111122 
TCOON,ioos:station:TCOON:003:1,2016-12-12T09:18:00Z,26.8015,-97.4706,1.365,1111122 
TCOON,ioos:station:TCOON:003:1,2016-12-12T10:18:00Z,26.8015,-97.4706,1.351,1111122 
TCOON,ioos:station:TCOON:003:1,2016-12-12T11:18:00Z,26.8015,-97.4706,1.333,1111122 
TCOON,ioos:station:TCOON:003:1,2016-12-12T12:18:00Z,26.8015,-97.4706,1.323,1111122 
TCOON,ioos:station:TCOON:003:1,2016-12-12T13:18:00Z,26.8015,-97.4706,1.323,1111122 
TCOON,ioos:station:TCOON:003:1,2016-12-12T14:18:00Z,26.8015,-97.4706,1.327,1111122 
TCOON,ioos:station:TCOON:003:1,2016-12-12T15:24:00Z,26.8015,-97.4706,1.319,1111122 
TCOON,ioos:station:TCOON:003:1,2016-12-12T16:24:00Z,26.8015,-97.4706,1.313,1111122 
TCOON,ioos:station:TCOON:003:1,2016-12-12T17:24:00Z,26.8015,-97.4706,1.304,1111122 
TCOON,ioos:station:TCOON:003:1,2016-12-12T18:18:00Z,26.8015,-97.4706,1.308,1111122 
TCOON,ioos:station:TCOON:003:1,2016-12-12T19:18:00Z,26.8015,-97.4706,1.304,1111122 
TCOON,ioos:station:TCOON:003:1,2016-12-12T20:18:00Z,26.8015,-97.4706,1.311,1111122 
TCOON,ioos:station:TCOON:003:1,2016-12-12T21:18:00Z,26.8015,-97.4706,1.313,1111122 
TCOON,ioos:station:TCOON:003:1,2016-12-12T22:18:00Z,26.8015,-97.4706,1.335,1111122 
TCOON,ioos:station:TCOON:003:1,2016-12-12T23:18:00Z,26.8015,-97.4706,1.345,1111122 
TCOON,ioos:station:TCOON:003:1,2016-12-13T00:18:00Z,26.8015,-97.4706,1.347,1111122 
TCOON,ioos:station:TCOON:003:1,2016-12-13T01:18:00Z,26.8015,-97.4706,1.342,1111122 
TCOON,ioos:station:TCOON:003:1,2016-12-13T02:18:00Z,26.8015,-97.4706,1.338,1111122 